"startDT [UTC]","vpos","CH4 [ppm]","stdev(CH4) [ppm]","CO2 [ppm]","stdev(CO2) [ppm]","H2O_reported [%]","stdev(H2O_reported)","CavityPressure [torr]","CavityTemp [C]","OutletValve","CH4_dry [ppm]","CO2_dry [ppm]","DasTemp [C]","EtalonTemp [C]","WarmBoxTemp [C]","MPVPosition","T_ECpre [C]","T_EC1 [C]","T_EC2 [C]","p_inlet [hPa]","p_in [hPa]","p_out [hPa]","T_inlet [C]","RH_inlet [%]","dwpt_inlet [C]","T_vent [C]","RH_vent [%]","dwpt_vent [C]","flow_vent [l min-1]","flow_inlet [l min-1]","dwpt_sample [C]","T_room [C]"
2015-10-26 00:00:00,0.0,1.92917,0.00054,400.636,0.033,0.2100,0.0014,139.999,45.000,31624.92937,1.93318,401.654,34.196,45.069,45.000,0.00,0.09,-272.75,-272.81,-7,521,-936,21.0,6.5,-17.1,21.1,6.5,-16.9,5.73,1.77,-9.6,26.6
2015-10-26 00:01:00,0.0,1.92948,0.00055,400.624,0.034,0.2101,0.0015,139.999,45.000,31624.92933,1.93350,401.642,34.190,45.069,45.000,0.00,0.09,-272.76,-272.81,-8,521,-936,21.0,6.5,-17.1,21.1,6.5,-16.9,5.73,2.02,-9.6,26.7
2015-10-26 00:02:00,0.0,1.92882,0.00048,400.597,0.029,0.2093,0.0014,140.000,45.000,31624.98115,1.93280,401.609,34.175,45.069,45.000,0.00,0.09,-272.75,-272.81,-7,521,-936,20.9,6.5,-17.1,21.1,6.6,-16.8,5.73,2.01,-9.6,26.6
2015-10-26 00:03:00,0.0,1.92933,0.00040,400.641,0.042,0.2097,0.0020,140.001,45.000,31622.84643,1.93337,401.659,34.136,45.069,45.000,0.00,0.09,-272.74,-272.80,-7,521,-936,20.9,6.5,-17.1,21.1,6.6,-16.9,5.73,1.76,-9.5,26.5
2015-10-26 00:04:00,0.0,1.92905,0.00044,400.596,0.038,0.2107,0.0016,139.998,45.000,31622.75383,1.93302,401.614,34.129,45.069,45.000,0.00,0.09,-272.76,-272.81,-8,521,-936,20.9,6.5,-17.1,21.1,6.6,-16.8,5.73,2.14,-9.5,26.6
2015-10-26 00:05:00,0.0,1.92941,0.00039,400.636,0.043,0.2103,0.0017,140.001,45.000,31623.84794,1.93343,401.654,34.125,45.069,45.001,0.00,0.09,-272.75,-272.81,-7,522,-936,20.9,6.5,-17.1,21.1,6.6,-16.8,5.73,1.82,-9.6,26.6
2015-10-26 00:06:00,0.0,1.92956,0.00076,400.659,0.047,0.2100,0.0018,140.000,45.000,31623.87931,1.93358,401.676,34.125,45.070,45.001,0.00,0.09,-272.75,-272.80,-7,521,-936,20.9,6.5,-17.1,21.1,6.6,-16.8,5.73,1.94,-9.6,26.6
2015-10-26 00:07:00,0.0,1.92917,0.00075,400.647,0.047,0.2107,0.0020,139.999,45.000,31624.02450,1.93321,401.667,34.130,45.069,45.000,0.00,0.09,-272.75,-272.81,-8,521,-936,21.0,6.5,-17.1,21.1,6.5,-16.8,5.73,2.06,-9.6,26.6
2015-10-26 00:08:00,0.0,1.92846,0.00074,400.614,0.052,0.2118,0.0013,140.001,45.000,31625.82625,1.93250,401.639,34.141,45.069,45.000,0.00,0.09,-272.75,-272.81,-7,521,-936,21.0,6.5,-17.0,21.1,6.6,-16.8,5.73,1.75,-9.6,26.6
2015-10-26 00:09:00,0.0,1.92829,0.00043,400.590,0.037,0.2128,0.0015,139.999,45.000,31624.32408,1.93235,401.621,34.159,45.069,45.000,0.00,0.09,-272.75,-272.80,-7,521,-936,21.0,6.6,-16.9,21.1,6.6,-16.7,5.73,2.13,-9.6,26.6
2015-10-26 00:10:00,0.0,1.92845,0.00058,400.572,0.042,0.2127,0.0018,140.002,45.000,31624.82967,1.93251,401.600,34.144,45.069,45.000,0.00,0.09,-272.74,-272.81,-8,522,-936,21.0,6.6,-16.9,21.1,6.6,-16.7,5.73,1.84,-9.5,26.7
2015-10-26 00:11:00,0.0,1.92851,0.00042,400.635,0.042,0.2126,0.0016,139.999,45.000,31624.68058,1.93259,401.665,34.153,45.069,45.000,0.00,0.09,-272.76,-272.81,-7,522,-936,20.9,6.5,-17.0,21.1,6.6,-16.7,5.73,1.90,-9.6,26.6
2015-10-26 00:12:00,0.0,1.92822,0.00039,400.594,0.039,0.2129,0.0018,139.999,45.000,31623.31845,1.93229,401.627,34.177,45.069,45.000,0.00,0.09,-272.76,-272.81,-7,521,-936,21.0,6.6,-16.9,21.1,6.6,-16.8,5.73,2.10,-9.5,26.6
2015-10-26 00:13:00,0.0,1.92778,0.00068,400.549,0.052,0.2130,0.0018,140.002,45.000,31624.18710,1.93184,401.581,34.187,45.069,45.000,0.00,0.09,-272.75,-272.80,-8,521,-936,20.9,6.6,-16.9,21.1,6.6,-16.7,5.73,1.74,-9.5,26.6
2015-10-26 00:14:00,0.0,1.92773,0.00037,400.548,0.029,0.2128,0.0013,140.000,45.000,31625.41857,1.93179,401.578,34.188,45.069,45.000,0.00,0.09,-272.76,-272.81,-7,522,-936,20.9,6.6,-16.9,21.1,6.6,-16.7,5.73,2.09,-9.5,26.6
2015-10-26 00:15:00,0.0,1.92815,0.00046,400.583,0.041,0.2128,0.0014,140.001,45.000,31625.58101,1.93219,401.612,34.186,45.069,44.999,0.00,0.09,-272.75,-272.82,-7,521,-936,20.9,6.6,-17.0,21.1,6.6,-16.7,5.73,1.92,-9.6,26.7
2015-10-26 00:16:00,0.0,1.92812,0.00045,400.582,0.040,0.2129,0.0014,140.002,45.000,31623.83920,1.93219,401.615,34.142,45.069,44.999,0.00,0.09,-272.75,-272.80,-8,521,-936,20.9,6.6,-17.0,21.1,6.7,-16.7,5.73,1.82,-9.5,26.5
2015-10-26 00:17:00,0.0,1.92730,0.00040,400.540,0.044,0.2132,0.0017,140.001,45.000,31623.31567,1.93138,401.572,34.125,45.069,45.000,0.00,0.09,-272.75,-272.81,-7,521,-936,20.9,6.6,-16.9,21.1,6.7,-16.7,5.73,2.14,-9.5,26.5
2015-10-26 00:18:00,0.0,1.92718,0.00032,400.522,0.034,0.2138,0.0012,139.998,45.000,31621.37439,1.93127,401.559,34.125,45.069,45.000,0.00,0.09,-272.75,-272.82,-7,521,-936,20.9,6.6,-16.9,21.1,6.7,-16.6,5.73,1.77,-9.6,26.5
2015-10-26 00:19:00,0.0,1.92675,0.00032,400.503,0.036,0.2142,0.0015,139.998,45.000,31622.80503,1.93083,401.538,34.126,45.069,45.000,0.00,0.09,-272.75,-272.80,-8,521,-936,20.9,6.6,-16.9,21.1,6.7,-16.6,5.73,2.04,-9.6,26.6
2015-10-26 00:20:00,0.0,1.92674,0.00035,400.512,0.031,0.2134,0.0015,140.002,45.000,31623.88041,1.93080,401.545,34.134,45.069,45.000,0.00,0.09,-272.75,-272.81,-7,521,-936,20.9,6.6,-16.9,21.1,6.7,-16.7,5.73,1.96,-9.6,26.6
2015-10-26 00:21:00,0.0,1.92723,0.00042,400.559,0.032,0.2129,0.0014,140.000,45.000,31623.82179,1.93128,401.591,34.177,45.069,45.000,0.00,0.09,-272.75,-272.82,-7,521,-936,20.9,6.6,-16.9,21.1,6.6,-16.6,5.73,1.81,-9.6,26.6
2015-10-26 00:22:00,0.0,1.92709,0.00027,400.569,0.025,0.2134,0.0016,140.002,45.000,31624.82258,1.93119,401.602,34.174,45.069,45.000,0.00,0.09,-272.75,-272.81,-8,522,-936,20.9,6.6,-16.9,21.1,6.6,-16.7,5.73,2.13,-9.6,26.6
2015-10-26 00:23:00,0.0,1.92726,0.00028,400.563,0.041,0.2133,0.0015,140.001,45.000,31624.94508,1.93130,401.596,34.146,45.069,45.000,0.00,0.09,-272.74,-272.81,-7,522,-936,20.9,6.6,-16.9,21.1,6.6,-16.7,5.73,1.76,-9.6,26.6
2015-10-26 00:24:00,0.0,1.92734,0.00040,400.572,0.033,0.2135,0.0018,140.000,45.000,31623.89201,1.93141,401.605,34.126,45.069,45.000,0.00,0.09,-272.76,-272.81,-7,521,-936,20.9,6.6,-17.0,21.1,6.6,-16.7,5.73,2.03,-9.6,26.6
2015-10-26 00:25:00,0.0,1.92780,0.00043,400.592,0.037,0.2128,0.0019,140.000,45.000,31623.54642,1.93186,401.621,34.133,45.069,45.000,0.00,0.09,-272.75,-272.81,-8,521,-936,21.0,6.6,-16.9,21.1,6.6,-16.7,5.73,1.98,-9.6,26.6
2015-10-26 00:26:00,0.0,1.92750,0.00053,400.601,0.025,0.2130,0.0017,140.000,45.000,31624.64664,1.93155,401.631,34.128,45.069,45.000,0.00,0.09,-272.75,-272.80,-7,522,-936,21.0,6.6,-16.9,21.2,6.6,-16.7,5.73,1.78,-9.6,26.6
2015-10-26 00:27:00,0.0,1.92745,0.00045,400.596,0.027,0.2133,0.0015,140.003,45.000,31625.28419,1.93151,401.630,34.151,45.069,45.000,0.00,0.09,-272.76,-272.80,-7,522,-936,21.0,6.6,-16.9,21.2,6.6,-16.7,5.73,2.14,-9.6,26.7
2015-10-26 00:28:00,0.0,1.92739,0.00030,400.608,0.040,0.2125,0.0016,140.001,45.000,31624.89898,1.93145,401.637,34.166,45.069,45.000,0.00,0.09,-272.75,-272.81,-8,522,-936,21.0,6.6,-16.9,21.2,6.6,-16.7,5.73,1.79,-9.6,26.7
2015-10-26 00:29:00,0.0,1.92740,0.00043,400.604,0.040,0.2119,0.0014,140.001,45.000,31625.88861,1.93144,401.630,34.131,45.069,45.000,0.00,0.09,-272.75,-272.80,-7,522,-936,20.9,6.6,-17.0,21.1,6.6,-16.8,5.73,1.97,-9.6,26.6
2015-10-26 00:30:00,0.0,1.92761,0.00035,400.635,0.036,0.2119,0.0018,140.001,45.000,31624.55002,1.93167,401.661,34.126,45.069,45.000,0.00,0.09,-272.75,-272.81,-7,522,-936,20.9,6.5,-17.0,21.1,6.6,-16.8,5.73,2.06,-9.6,26.6
2015-10-26 00:31:00,0.0,1.92728,0.00031,400.591,0.033,0.2109,0.0017,140.000,45.000,31625.78144,1.93127,401.613,34.122,45.069,45.000,0.00,0.09,-272.75,-272.81,-8,521,-936,20.9,6.5,-17.0,21.1,6.6,-16.8,5.73,1.75,-9.6,26.6
2015-10-26 00:32:00,0.0,1.92761,0.00031,400.646,0.035,0.2111,0.0015,139.998,45.000,31623.68039,1.93163,401.667,34.121,45.069,45.000,0.00,0.09,-272.75,-272.81,-7,522,-936,20.9,6.5,-17.0,21.1,6.6,-16.8,5.73,2.12,-9.6,26.6
2015-10-26 00:33:00,0.0,1.92773,0.00034,400.616,0.028,0.2112,0.0021,140.004,45.000,31625.40619,1.93176,401.640,34.124,45.069,45.000,0.00,0.09,-272.74,-272.81,-7,521,-936,20.9,6.5,-17.1,21.1,6.6,-16.8,5.73,1.85,-9.6,26.6
2015-10-26 00:34:00,0.0,1.92788,0.00043,400.631,0.040,0.2116,0.0015,140.001,45.000,31624.93479,1.93190,401.655,34.126,45.069,45.000,0.00,0.09,-272.76,-272.81,-8,522,-936,20.9,6.5,-17.0,21.1,6.5,-16.8,5.73,1.91,-9.6,26.6
2015-10-26 00:35:00,0.0,1.92808,0.00041,400.622,0.027,0.2110,0.0015,140.002,45.000,31627.10546,1.93211,401.644,34.162,45.069,45.000,0.00,0.09,-272.75,-272.81,-7,522,-936,21.0,6.5,-17.0,21.1,6.5,-16.8,5.73,2.07,-9.6,26.7
2015-10-26 00:36:00,0.0,1.92832,0.00032,400.600,0.032,0.2108,0.0019,139.998,45.000,31628.52444,1.93232,401.620,34.187,45.069,45.000,0.00,0.09,-272.74,-272.81,-7,521,-936,21.0,6.5,-17.0,21.1,6.5,-16.9,5.73,1.75,-9.6,26.7
2015-10-26 00:37:00,0.0,1.92822,0.00033,400.617,0.031,0.2102,0.0018,139.998,45.000,31628.00213,1.93225,401.634,34.188,45.069,45.000,0.00,0.09,-272.75,-272.81,-8,521,-936,20.9,6.5,-17.1,21.1,6.5,-16.8,5.73,2.12,-9.6,26.6
2015-10-26 00:38:00,0.0,1.92836,0.00049,400.612,0.042,0.2098,0.0021,139.999,45.000,31627.17610,1.93234,401.629,34.188,45.069,45.000,0.00,0.09,-272.75,-272.81,-7,522,-936,20.9,6.5,-17.1,21.1,6.5,-16.9,5.73,1.85,-9.6,26.7
2015-10-26 00:39:00,0.0,1.92783,0.00033,400.606,0.029,0.2088,0.0016,140.001,45.000,31627.29262,1.93183,401.617,34.186,45.069,45.000,0.00,0.09,-272.75,-272.80,-7,521,-936,21.0,6.5,-17.1,21.2,6.5,-16.9,5.73,1.91,-9.6,26.7
2015-10-26 00:40:00,0.0,1.92742,0.00039,400.611,0.043,0.2086,0.0018,139.999,45.000,31628.02150,1.93144,401.621,34.184,45.069,45.000,0.00,0.09,-272.75,-272.81,-8,522,-936,21.0,6.4,-17.2,21.1,6.5,-16.9,5.73,2.08,-9.6,26.7
2015-10-26 00:41:00,0.0,1.92725,0.00056,400.592,0.028,0.2083,0.0019,139.998,45.000,31628.55560,1.93121,401.600,34.172,45.069,45.000,0.00,0.09,-272.75,-272.81,-7,522,-936,21.0,6.4,-17.2,21.2,6.5,-17.0,5.73,1.74,-9.6,26.6
2015-10-26 00:42:00,0.0,1.92751,0.00053,400.612,0.032,0.2084,0.0013,140.001,45.000,31629.18602,1.93148,401.622,34.153,45.069,45.000,0.00,0.09,-272.76,-272.80,-7,521,-936,21.0,6.4,-17.2,21.2,6.5,-16.9,5.73,2.11,-9.6,26.7
2015-10-26 00:43:00,0.0,1.92743,0.00038,400.604,0.028,0.2077,0.0017,140.002,45.000,31630.36569,1.93136,401.608,34.170,45.069,45.000,0.00,0.09,-272.74,-272.81,-8,521,-936,21.0,6.4,-17.2,21.2,6.5,-17.0,5.73,1.89,-9.6,26.7
2015-10-26 00:44:00,0.0,1.92805,0.00046,400.644,0.043,0.2081,0.0021,140.004,45.000,31630.55887,1.93202,401.652,34.176,45.069,45.000,0.00,0.09,-272.75,-272.81,-7,522,-936,21.0,6.4,-17.2,21.2,6.5,-17.0,5.73,1.86,-9.6,26.7
2015-10-26 00:45:00,0.0,1.92792,0.00041,400.638,0.035,0.2081,0.0017,139.999,45.000,31629.89519,1.93189,401.645,34.156,45.069,45.000,0.00,0.09,-272.76,-272.82,-7,522,-936,21.0,6.4,-17.2,21.2,6.5,-16.9,5.73,2.12,-9.6,26.6
2015-10-26 00:46:00,0.0,1.92818,0.00035,400.658,0.035,0.2078,0.0016,140.001,45.000,31628.67014,1.93212,401.665,34.142,45.069,45.000,0.00,0.09,-272.74,-272.81,-8,522,-936,21.0,6.4,-17.2,21.2,6.5,-17.0,5.73,1.74,-9.6,26.7
2015-10-26 00:47:00,0.0,1.92801,0.00048,400.655,0.027,0.2089,0.0016,139.998,45.000,31627.79697,1.93199,401.666,34.125,45.069,45.000,0.00,0.09,-272.75,-272.80,-7,522,-936,21.0,6.4,-17.2,21.2,6.5,-17.0,5.73,2.07,-9.6,26.6
2015-10-26 00:48:00,0.0,1.92816,0.00046,400.670,0.035,0.2088,0.0020,140.000,45.000,31627.64865,1.93213,401.682,34.121,45.069,45.000,0.00,0.09,-272.75,-272.82,-7,521,-936,21.0,6.4,-17.2,21.2,6.5,-17.0,5.73,1.94,-9.6,26.6
2015-10-26 00:49:00,0.0,1.92827,0.00054,400.662,0.038,0.2077,0.0018,139.998,45.000,31625.98981,1.93224,401.666,34.110,45.069,45.000,0.00,0.09,-272.75,-272.81,-8,522,-936,21.0,6.4,-17.2,21.2,6.5,-17.0,5.73,1.81,-9.6,26.7
2015-10-26 00:50:00,0.0,1.92815,0.00040,400.678,0.045,0.2072,0.0015,139.998,45.000,31626.46945,1.93209,401.682,34.119,45.069,45.000,0.00,0.09,-272.75,-272.80,-7,522,-936,21.0,6.4,-17.2,21.2,6.4,-17.0,5.73,2.13,-9.6,26.7
2015-10-26 00:51:00,0.0,1.92836,0.00044,400.670,0.040,0.2071,0.0014,140.001,45.000,31628.00547,1.93231,401.672,34.120,45.069,45.000,0.00,0.09,-272.75,-272.81,-7,522,-936,21.0,6.4,-17.2,21.2,6.4,-17.0,5.73,1.76,-9.6,26.7
2015-10-26 00:52:00,0.0,1.92837,0.00035,400.687,0.026,0.2072,0.0019,140.002,45.000,31628.76560,1.93235,401.690,34.124,45.069,45.000,0.00,0.09,-272.76,-272.81,-8,522,-936,21.0,6.4,-17.3,21.2,6.4,-17.0,5.73,2.05,-9.6,26.7
2015-10-26 00:53:00,0.0,1.92814,0.00026,400.686,0.036,0.2072,0.0015,139.999,45.000,31629.48778,1.93208,401.689,34.120,45.069,45.000,0.00,0.09,-272.74,-272.80,-7,522,-936,21.0,6.4,-17.3,21.2,6.4,-17.1,5.73,1.96,-9.6,26.7
2015-10-26 00:54:00,0.0,1.92873,0.00052,400.735,0.028,0.2068,0.0014,139.999,45.000,31629.05364,1.93264,401.736,34.125,45.069,45.000,0.00,0.09,-272.75,-272.81,-7,522,-936,21.0,6.4,-17.2,21.2,6.4,-17.0,5.73,1.81,-9.6,26.7
2015-10-26 00:55:00,0.0,1.92900,0.00031,400.703,0.026,0.2071,0.0017,140.001,45.000,31630.33084,1.93295,401.705,34.124,45.069,45.000,0.00,0.09,-272.76,-272.81,-8,522,-936,21.1,6.4,-17.2,21.2,6.4,-17.0,5.73,2.13,-9.6,26.7
2015-10-26 00:56:00,0.0,1.92919,0.00038,400.698,0.030,0.2083,0.0018,140.000,45.000,31633.00353,1.93317,401.707,34.120,45.069,45.000,0.00,0.09,-272.75,-272.81,-7,522,-936,21.1,6.4,-17.2,21.2,6.4,-17.0,5.73,1.75,-9.6,26.7
2015-10-26 00:57:00,0.0,1.92953,0.00053,400.697,0.034,0.2084,0.0016,140.000,45.000,31633.44443,1.93346,401.707,34.170,45.069,45.001,0.00,0.09,-272.75,-272.81,-8,522,-936,21.1,6.4,-17.2,21.2,6.4,-17.0,5.73,2.07,-9.6,26.8
2015-10-26 00:58:00,0.0,1.93049,0.00055,400.711,0.023,0.2084,0.0014,140.000,45.000,31632.82796,1.93446,401.721,34.187,45.069,45.000,0.00,0.09,-272.75,-272.82,-8,522,-936,21.0,6.4,-17.2,21.2,6.4,-17.0,5.73,1.91,-9.6,26.8
2015-10-26 00:59:00,0.0,1.93117,0.00035,400.718,0.035,0.2089,0.0020,139.999,45.000,31633.60144,1.93516,401.731,34.188,45.069,45.000,0.00,0.09,-272.75,-272.81,-7,522,-936,21.0,6.4,-17.2,21.3,6.4,-16.9,5.73,1.84,-9.6,26.7
2015-10-26 01:00:00,0.0,1.93151,0.00057,400.738,0.029,0.2089,0.0022,139.998,45.000,31631.49849,1.93548,401.749,34.189,45.069,45.000,0.00,0.09,-272.74,-272.81,-8,522,-936,21.0,6.4,-17.2,21.2,6.4,-17.0,5.73,2.13,-9.6,26.8
2015-10-26 01:01:00,0.0,1.93028,0.00044,400.726,0.027,0.2088,0.0017,140.000,45.000,31632.85333,1.93431,401.738,34.186,45.069,45.000,0.00,0.09,-272.75,-272.81,-8,522,-936,21.0,6.4,-17.2,21.2,6.4,-17.0,5.73,1.75,-9.6,26.8
2015-10-26 01:02:00,0.0,1.92896,0.00033,400.677,0.028,0.2078,0.0021,140.001,45.000,31635.33216,1.93296,401.684,34.179,45.069,45.000,0.00,0.09,-272.76,-272.81,-7,522,-936,21.0,6.4,-17.2,21.2,6.4,-17.0,5.73,2.03,-9.6,26.7
2015-10-26 01:03:00,0.0,1.92894,0.00034,400.699,0.034,0.2089,0.0017,139.998,45.000,31631.90675,1.93294,401.710,34.127,45.069,45.000,0.00,0.09,-272.75,-272.81,-7,522,-936,21.0,6.4,-17.2,21.2,6.4,-17.0,5.73,2.00,-9.6,26.7
2015-10-26 01:04:00,0.0,1.92972,0.00069,400.723,0.031,0.2081,0.0014,140.001,45.000,31632.04982,1.93366,401.731,34.125,45.069,45.000,0.00,0.09,-272.75,-272.81,-8,522,-936,21.0,6.4,-17.2,21.2,6.4,-17.0,5.73,1.76,-9.6,26.7
2015-10-26 01:05:00,0.0,1.93021,0.00055,400.760,0.031,0.2080,0.0017,140.000,45.000,31628.21075,1.93417,401.767,34.118,45.069,45.000,0.00,0.09,-272.76,-272.82,-7,522,-936,21.0,6.4,-17.2,21.2,6.4,-17.0,5.73,2.13,-9.6,26.7
2015-10-26 01:06:00,0.0,1.93021,0.00034,400.775,0.037,0.2083,0.0016,139.999,45.000,31628.57305,1.93417,401.784,34.111,45.069,45.000,0.00,0.09,-272.75,-272.81,-7,522,-936,21.0,6.4,-17.2,21.2,6.4,-17.0,5.73,1.82,-9.6,26.7
2015-10-26 01:07:00,0.0,1.93118,0.00066,400.848,0.045,0.2081,0.0016,139.999,45.000,31627.29082,1.93517,401.856,34.116,45.069,45.000,0.00,0.09,-272.75,-272.80,-8,522,-936,21.0,6.4,-17.2,21.2,6.4,-17.0,5.73,1.92,-9.6,26.7
2015-10-26 01:08:00,0.0,1.93191,0.00073,400.873,0.032,0.2079,0.0018,139.998,45.000,31629.28742,1.93577,401.879,34.123,45.069,45.000,0.00,0.09,-272.75,-272.81,-7,522,-936,21.0,6.4,-17.2,21.2,6.4,-17.0,5.73,2.07,-9.6,26.7
2015-10-26 01:09:00,0.0,1.93243,0.00047,400.874,0.032,0.2084,0.0011,139.998,45.000,31629.09107,1.93640,401.884,34.125,45.069,45.000,0.00,0.09,-272.75,-272.81,-7,522,-936,21.0,6.4,-17.2,21.2,6.4,-17.0,5.73,1.74,-9.6,26.7
2015-10-26 01:10:00,0.0,1.93270,0.00093,400.914,0.051,0.2083,0.0015,139.997,45.000,31627.25750,1.93673,401.923,34.125,45.069,45.000,0.00,0.09,-272.75,-272.80,-8,522,-936,21.0,6.4,-17.2,21.2,6.4,-17.0,5.73,2.12,-9.6,26.7
2015-10-26 01:11:00,0.0,1.93108,0.00059,400.857,0.041,0.2074,0.0014,139.998,45.000,31627.33274,1.93507,401.862,34.125,45.069,45.000,0.00,0.09,-272.75,-272.81,-7,522,-936,21.0,6.4,-17.2,21.2,6.4,-17.0,5.73,1.84,-9.6,26.7
2015-10-26 01:12:00,0.0,1.93033,0.00042,400.798,0.037,0.2085,0.0021,140.001,45.000,31628.69942,1.93435,401.809,34.123,45.069,45.000,0.00,0.09,-272.76,-272.81,-8,522,-936,21.0,6.4,-17.2,21.3,6.4,-16.9,5.73,1.92,-9.6,26.7
2015-10-26 01:13:00,0.0,1.93020,0.00027,400.776,0.042,0.2087,0.0016,139.998,45.000,31629.12781,1.93417,401.788,34.119,45.069,45.000,0.00,0.09,-272.74,-272.81,-8,522,-936,21.0,6.4,-17.1,21.3,6.4,-16.9,5.73,2.07,-9.6,26.7
2015-10-26 01:14:00,0.0,1.92947,0.00038,400.764,0.031,0.2091,0.0016,139.999,45.000,31630.43727,1.93350,401.776,34.125,45.069,45.000,0.00,0.09,-272.74,-272.81,-7,522,-936,21.1,6.4,-17.1,21.3,6.5,-16.9,5.73,1.75,-9.6,26.8
2015-10-26 01:15:00,0.0,1.92928,0.00046,400.777,0.031,0.2089,0.0017,140.000,45.000,31631.56391,1.93330,401.789,34.125,45.069,45.000,0.00,0.09,-272.76,-272.81,-8,522,-936,21.1,6.4,-17.1,21.3,6.5,-16.9,5.73,2.12,-9.6,26.7
2015-10-26 01:16:00,0.0,1.92844,0.00076,400.737,0.051,0.2087,0.0018,139.999,45.000,31631.60074,1.93247,401.750,34.127,45.069,45.000,0.00,0.09,-272.74,-272.81,-8,522,-936,21.1,6.4,-17.2,21.3,6.4,-17.0,5.73,1.83,-9.6,26.7
2015-10-26 01:17:00,0.0,1.92807,0.00043,400.731,0.036,0.2078,0.0017,140.000,45.000,31631.86178,1.93201,401.737,34.125,45.069,45.000,0.00,0.09,-272.75,-272.80,-7,522,-936,21.1,6.4,-17.2,21.3,6.4,-16.9,5.73,1.94,-9.6,26.8
2015-10-26 01:18:00,0.0,1.92757,0.00033,400.706,0.026,0.2087,0.0019,139.999,45.000,31632.01819,1.93157,401.717,34.175,45.069,45.000,0.00,0.09,-272.76,-272.81,-8,522,-936,21.1,6.4,-17.1,21.3,6.4,-16.9,5.73,2.05,-9.6,26.8
2015-10-26 01:19:00,0.0,1.92773,0.00042,400.709,0.035,0.2088,0.0017,139.998,45.000,31633.56116,1.93169,401.720,34.194,45.069,45.000,0.00,0.09,-272.76,-272.81,-8,522,-936,21.1,6.4,-17.1,21.3,6.4,-16.9,5.73,1.76,-9.6,26.8
2015-10-26 01:20:00,0.0,1.92771,0.00042,400.722,0.030,0.2076,0.0018,139.999,45.000,31634.34047,1.93167,401.726,34.219,45.069,45.000,0.00,0.09,-272.75,-272.80,-7,522,-936,21.1,6.4,-17.2,21.3,6.4,-16.9,5.73,2.14,-9.6,26.8
2015-10-26 01:21:00,0.0,1.92788,0.00051,400.726,0.028,0.2072,0.0022,140.001,45.000,31633.70796,1.93184,401.730,34.227,45.069,45.000,0.00,0.09,-272.74,-272.81,-8,522,-936,21.1,6.3,-17.2,21.4,6.4,-17.0,5.73,1.78,-9.6,26.8
2015-10-26 01:22:00,0.0,1.92766,0.00052,400.697,0.027,0.2059,0.0018,140.000,45.000,31634.08150,1.93162,401.693,34.246,45.069,45.000,0.00,0.09,-272.76,-272.81,-8,523,-936,21.1,6.3,-17.3,21.3,6.4,-17.0,5.73,2.00,-9.6,26.8
2015-10-26 01:23:00,0.0,1.92816,0.00033,400.719,0.031,0.2075,0.0018,140.000,45.000,31633.83592,1.93205,401.724,34.244,45.069,45.000,0.00,0.09,-272.74,-272.80,-7,522,-936,21.1,6.3,-17.3,21.4,6.4,-17.0,5.73,2.00,-9.6,26.9
2015-10-26 01:24:00,0.0,1.92814,0.00044,400.739,0.028,0.2080,0.0016,140.000,45.000,31633.94198,1.93209,401.746,34.213,45.069,45.000,0.00,0.09,-272.74,-272.80,-8,522,-936,21.1,6.4,-17.2,21.3,6.4,-17.0,5.73,1.77,-9.6,26.8
2015-10-26 01:25:00,0.0,1.92805,0.00028,400.737,0.037,0.2076,0.0020,140.002,45.000,31635.90791,1.93206,401.743,34.206,45.069,45.000,0.00,0.09,-272.76,-272.81,-8,522,-936,21.1,6.4,-17.2,21.3,6.4,-17.0,5.73,2.14,-9.6,26.9
2015-10-26 01:26:00,0.0,1.92805,0.00051,400.720,0.043,0.2080,0.0015,140.002,45.000,31635.40762,1.93199,401.727,34.204,45.069,45.000,0.00,0.09,-272.74,-272.81,-7,522,-936,21.1,6.3,-17.2,21.3,6.4,-17.0,5.73,1.79,-9.6,26.8
2015-10-26 01:27:00,0.0,1.92805,0.00037,400.725,0.030,0.2072,0.0015,140.000,45.000,31633.88091,1.93199,401.728,34.231,45.069,45.000,0.00,0.09,-272.75,-272.81,-8,522,-936,21.1,6.3,-17.2,21.4,6.4,-17.0,5.73,1.97,-9.6,26.8
2015-10-26 01:28:00,0.0,1.92852,0.00064,400.728,0.038,0.2078,0.0019,140.000,45.000,31634.99842,1.93242,401.732,34.219,45.069,45.000,0.00,0.09,-272.75,-272.81,-8,523,-936,21.1,6.3,-17.2,21.4,6.4,-17.0,5.73,2.05,-9.6,26.8
2015-10-26 01:29:00,0.0,1.92952,0.00052,400.819,0.030,0.2078,0.0016,139.998,45.000,31636.43829,1.93348,401.825,34.228,45.069,45.000,0.00,0.09,-272.75,-272.81,-7,522,-936,21.1,6.4,-17.2,21.3,6.4,-17.0,5.73,1.75,-9.6,26.8
2015-10-26 01:30:00,0.0,1.92976,0.00043,400.874,0.047,0.2080,0.0019,140.000,45.000,31638.83336,1.93374,401.882,34.200,45.069,45.000,0.00,0.09,-272.75,-272.80,-8,522,-936,21.1,6.4,-17.2,21.3,6.4,-17.0,5.73,2.14,-9.6,26.9
2015-10-26 01:31:00,0.0,1.92946,0.00037,400.872,0.032,0.2070,0.0014,140.001,45.000,31638.52769,1.93344,401.876,34.190,45.069,45.000,0.00,0.09,-272.75,-272.81,-8,523,-936,21.1,6.3,-17.2,21.3,6.4,-17.0,5.73,1.80,-9.6,26.9
2015-10-26 01:32:00,0.0,1.92919,0.00052,400.811,0.024,0.2070,0.0017,140.001,45.000,31638.06476,1.93316,401.814,34.191,45.069,45.000,0.00,0.09,-272.76,-272.81,-7,523,-936,21.1,6.3,-17.3,21.3,6.4,-17.0,5.73,1.95,-9.6,26.9
2015-10-26 01:33:00,0.0,1.92887,0.00032,400.837,0.033,0.2052,0.0021,139.998,45.000,31637.04054,1.93278,401.830,34.203,45.069,45.000,0.00,0.09,-272.75,-272.81,-8,522,-936,21.1,6.3,-17.3,21.3,6.3,-17.1,5.73,2.05,-9.6,26.8
2015-10-26 01:34:00,0.0,1.92909,0.00031,400.860,0.030,0.2056,0.0016,139.999,45.000,31637.52558,1.93301,401.856,34.245,45.069,45.000,0.00,0.09,-272.75,-272.80,-8,522,-936,21.1,6.3,-17.4,21.3,6.3,-17.1,5.73,1.75,-9.6,26.9
2015-10-26 01:35:00,0.0,1.92911,0.00048,400.854,0.043,0.2052,0.0014,139.998,45.000,31638.93174,1.93302,401.848,34.253,45.069,45.000,0.00,0.09,-272.76,-272.80,-7,522,-936,21.1,6.3,-17.3,21.4,6.3,-17.1,5.73,2.13,-9.6,26.8
2015-10-26 01:36:00,0.0,1.92926,0.00042,400.878,0.030,0.2056,0.0014,140.001,45.000,31639.74027,1.93320,401.874,34.266,45.069,45.000,0.00,0.09,-272.75,-272.81,-9,522,-936,21.1,6.3,-17.3,21.4,6.3,-17.1,5.73,1.82,-9.6,26.8
2015-10-26 01:37:00,0.0,1.92927,0.00031,400.875,0.026,0.2047,0.0019,139.999,45.000,31639.08032,1.93315,401.867,34.265,45.069,45.000,0.00,0.09,-272.75,-272.80,-8,523,-936,21.1,6.2,-17.4,21.3,6.3,-17.1,5.73,1.94,-9.6,26.8
2015-10-26 01:38:00,0.0,1.92955,0.00031,400.887,0.030,0.2035,0.0019,140.001,45.000,31641.42465,1.93344,401.874,34.253,45.069,45.000,0.00,0.09,-272.75,-272.81,-7,522,-936,21.1,6.2,-17.4,21.4,6.3,-17.2,5.73,2.05,-9.6,26.8
2015-10-26 01:39:00,0.0,1.92947,0.00037,400.881,0.034,0.2031,0.0020,139.998,45.000,31642.25093,1.93334,401.864,34.259,45.069,45.000,0.00,0.09,-272.75,-272.81,-9,522,-936,21.1,6.2,-17.5,21.4,6.2,-17.2,5.73,1.75,-9.6,26.9
2015-10-26 01:40:00,0.0,1.92963,0.00035,400.876,0.029,0.2022,0.0017,140.001,45.000,31641.72498,1.93348,401.855,34.252,45.069,45.000,0.00,0.09,-272.75,-272.81,-7,523,-936,21.1,6.2,-17.5,21.4,6.2,-17.3,5.73,2.13,-9.6,26.8
2015-10-26 01:41:00,0.0,1.92921,0.00043,400.861,0.039,0.2018,0.0018,139.997,45.000,31641.76933,1.93308,401.839,34.252,45.069,45.000,0.00,0.09,-272.74,-272.81,-7,522,-936,21.2,6.1,-17.6,21.4,6.2,-17.3,5.73,1.79,-9.6,26.9
2015-10-26 01:42:00,0.0,1.92914,0.00032,400.884,0.027,0.2024,0.0015,139.998,45.000,31640.50558,1.93300,401.864,34.263,45.069,45.000,0.00,0.09,-272.75,-272.81,-9,523,-936,21.2,6.2,-17.5,21.4,6.2,-17.3,5.73,1.99,-9.6,26.9
2015-10-26 01:43:00,0.0,1.92832,0.00038,400.833,0.023,0.2022,0.0015,140.000,45.000,31641.71688,1.93222,401.813,34.282,45.069,45.000,0.00,0.09,-272.75,-272.81,-7,523,-936,21.2,6.2,-17.5,21.4,6.2,-17.3,5.73,2.00,-9.6,26.9
2015-10-26 01:44:00,0.0,1.92831,0.00051,400.825,0.036,0.2015,0.0021,139.999,45.000,31642.69378,1.93211,401.799,34.294,45.069,45.000,0.00,0.09,-272.75,-272.80,-8,522,-936,21.1,6.1,-17.6,21.4,6.2,-17.3,5.73,1.78,-9.6,26.9
2015-10-26 01:45:00,0.0,1.92853,0.00041,400.782,0.030,0.2018,0.0015,140.000,45.000,31644.06339,1.93242,401.760,34.269,45.069,45.000,0.00,0.09,-272.76,-272.81,-9,523,-936,21.1,6.1,-17.6,21.4,6.2,-17.3,5.73,2.14,-9.6,26.9